Terminal Aerodrome Forecast
Issued by NWS Twin Cities, MN

Home | Current Version | Previous Version | Text Only | Print | Product List | Glossary Off
Versions: 1 2 3 4 5 6 7 8 9 10 11 12 13 14 15 16 17 18 19 20 21 22 23 24 25 26 27

000
FTUS43 KMPX 092002 AAA
TAFMSP
TAF AMD
KMSP 092002Z 0920/1024 27007KT P6SM BKN022
     FM100000 27006KT P6SM SCT020 BKN130
     FM101700 VRB03KT P6SM SCT030 OVC090
     FM102200 09005KT 6SM -SN SCT015 OVC030=

USA.gov is the U.S. government's official web portal to all federal, state and local government web resources and services.